Theta_e
284 284 283 282 280 279 278 277 276 276 275 275 273 272 271 270 270 269 269 269 269 268 268 268 268 267 267 267 267 266 266 266 266 266 266 266 266 266 266 266 266 266 266 266 266 266 266 266 266 266 266 266 266 266 266 266 266 266 266 266 266 265 265 265 264 265 266 266 267 267 267 268 269 269 270 271 271 272 273 273 273 274 275 276 278
283 283 281 280 279 278 277 276 275 275 275 273 272 271 270 270 269 269 269 268 268 268 268 267 267 267 267 267 266 266 266 266 266 266 266 266 266 266 266 266 266 266 266 266 265 265 265 265 265 265 265 265 265 265 265 265 265 266 266 266 266 266 266 265 265 265 266 266 266 266 266 267 268 268 269 270 270 271 272 273 273 273 273 274 275
282 281 280 279 278 277 276 276 275 275 273 272 271 270 270 269 269 269 268 268 268 268 267 267 267 267 266 266 266 266 266 266 266 266 266 266 266 266 266 266 266 266 265 265 265 265 265 265 265 265 265 265 265 265 265 265 265 265 265 266 266 266 266 265 265 265 266 266 266 266 265 265 266 267 268 269 269 270 270 271 272 272 272 273 273
281 280 280 279 278 277 276 276 275 274 273 271 271 270 269 269 269 268 268 268 268 267 267 267 267 266 266 266 266 266 266 266 266 266 266 266 265 265 265 265 265 265 265 265 265 265 265 264 265 265 264 264 265 265 265 265 265 265 265 265 265 265 265 265 265 265 265 265 265 265 265 265 266 266 267 268 268 269 269 270 271 271 272 272 272
281 280 279 278 277 277 276 276 275 274 272 271 270 270 269 269 268 268 268 267 267 267 266 266 266 266 266 266 266 266 265 265 265 265 265 265 265 265 265 265 265 265 265 265 265 264 264 264 265 264 264 264 264 264 265 265 265 265 265 265 265 265 265 265 265 265 265 265 265 265 264 265 265 266 266 267 268 268 269 269 270 270 271 271 271
280 280 279 278 277 276 276 275 274 273 272 271 270 269 269 268 268 268 267 267 267 267 266 266 266 266 266 266 265 265 265 265 265 265 265 265 265 265 265 265 265 265 265 265 264 264 264 264 265 264 264 264 264 264 264 264 265 265 265 265 265 265 265 265 265 265 265 265 265 265 264 264 265 265 266 266 267 267 268 268 269 269 270 270 271
280 279 278 277 277 276 276 275 274 273 272 270 269 269 268 268 268 267 267 267 266 266 266 266 266 266 265 265 265 265 265 265 265 265 265 265 265 265 265 265 265 265 265 264 264 265 264 264 264 264 264 264 264 264 264 264 264 264 264 265 265 265 264 264 264 264 264 264 264 264 264 264 264 265 265 265 266 266 267 267 268 269 269 269 270
279 278 278 277 277 276 275 274 273 272 271 270 269 268 268 268 267 267 267 266 266 266 266 266 265 265 265 265 265 265 264 264 265 265 265 265 265 265 265 265 264 264 264 265 265 265 265 265 264 264 264 264 264 264 264 264 264 264 264 264 264 264 264 264 264 264 264 264 264 264 264 264 264 264 264 265 265 266 267 267 267 268 268 269 269
278 278 277 276 276 275 274 273 272 271 270 269 268 268 267 267 267 267 266 266 266 266 266 265 265 265 265 265 265 264 264 265 265 265 265 265 265 265 265 265 265 265 265 265 265 265 265 265 264 264 264 264 264 264 264 264 264 264 264 264 264 263 263 263 263 264 264 264 264 264 264 264 263 264 264 264 264 265 266 266 266 267 267 268 269
278 277 276 275 275 274 273 272 271 270 269 268 268 267 267 267 266 266 266 266 266 266 265 265 265 265 265 265 265 264 264 265 265 265 265 264 264 264 265 265 264 264 264 264 264 264 264 264 264 264 264 264 264 264 264 263 263 263 263 263 263 263 263 264 264 264 264 264 264 264 264 264 264 264 264 264 265 265 265 265 266 267 267 267 268
277 276 275 274 274 273 272 271 270 269 269 268 267 267 267 266 266 266 266 266 265 265 265 265 265 265 265 264 264 265 265 265 265 265 264 264 264 264 264 264 264 263 263 263 263 263 263 263 263 263 263 263 263 263 263 263 263 263 263 263 263 263 263 264 263 264 264 263 263 264 264 264 264 264 264 265 265 265 265 266 266 266 267 267 267
276 275 274 273 272 271 270 270 269 269 268 267 267 267 266 266 266 266 266 266 265 265 265 265 265 265 265 264 264 265 265 265 265 264 264 264 265 265 264 264 264 263 263 263 263 263 263 263 263 263 263 263 263 263 263 263 263 263 263 263 263 263 263 264 264 264 264 264 264 264 264 264 265 265 265 265 265 265 266 266 266 266 266 266 267
275 274 273 272 271 270 270 269 268 268 267 267 267 266 266 266 266 266 266 265 265 265 265 265 265 265 265 264 265 265 265 265 265 264 264 264 265 265 265 264 264 264 263 263 263 263 263 264 263 263 263 263 263 263 263 263 263 263 263 263 263 263 263 264 264 264 264 264 264 264 265 265 265 265 265 265 265 266 266 266 266 266 266 267 267
274 273 272 271 270 270 269 268 268 268 267 267 266 266 266 266 266 266 265 265 265 265 265 265 265 265 265 264 264 264 265 265 265 264 264 264 265 265 265 264 264 263 263 263 264 264 263 263 263 263 263 263 263 263 263 263 263 263 263 263 263 263 263 263 264 264 264 264 264 264 264 264 265 265 265 265 265 266 266 266 266 266 266 267 268
273 272 271 270 269 269 269 268 268 268 267 267 266 266 266 266 266 266 265 265 265 265 265 265 265 265 264 264 264 264 265 265 264 264 264 264 264 264 264 263 263 263 263 263 264 264 263 263 263 263 263 263 263 263 263 263 263 263 263 263 263 263 263 264 264 264 264 264 264 264 265 265 265 265 265 266 266 266 266 266 266 266 266 267 267
273 272 270 269 269 269 268 268 268 268 267 267 267 267 266 266 266 265 265 265 265 265 265 265 265 265 264 264 264 264 265 265 264 264 264 264 264 263 263 263 263 263 263 263 263 263 263 263 263 263 263 263 263 262 262 263 263 263 263 263 263 263 263 264 264 264 265 265 265 265 266 266 266 266 267 267 267 267 267 267 267 267 267 267 267
272 271 270 269 269 269 269 268 268 268 267 267 267 267 266 266 266 265 265 265 265 265 265 265 265 264 264 264 264 264 264 265 264 264 264 263 263 263 262 262 262 262 262 263 263 263 263 263 263 263 262 262 262 262 263 263 263 263 263 263 263 263 264 264 264 264 265 265 265 266 266 266 267 267 267 267 267 268 268 268 268 268 267 267 267
271 270 269 269 269 269 269 268 268 268 267 267 267 266 266 266 266 265 265 265 265 265 264 264 264 264 264 264 264 264 264 264 264 264 264 263 263 262 262 261 261 261 262 263 263 263 263 263 262 262 262 262 262 263 263 264 263 263 263 263 263 264 264 264 264 264 264 265 265 265 265 266 266 266 267 267 267 267 267 267 267 268 268 267 268
270 270 270 270 270 269 269 268 268 268 267 267 267 266 266 266 266 265 265 265 265 265 264 264 264 264 264 264 264 263 264 264 264 264 263 263 263 262 262 261 261 261 262 262 262 262 262 262 262 262 262 262 263 263 264 264 264 263 263 263 264 263 263 264 264 264 264 264 264 264 265 265 265 265 266 266 266 266 266 266 266 267 267 267 267
270 270 270 270 269 269 269 268 268 268 267 267 267 266 266 266 266 265 265 265 264 264 264 264 264 264 264 264 263 263 263 263 264 263 263 263 263 262 262 261 261 261 262 262 262 262 262 262 262 262 262 262 263 263 264 264 264 263 263 263 263 263 264 264 264 264 264 264 264 264 264 264 265 265 265 265 265 266 266 266 266 266 266 266 266
270 270 270 269 269 269 268 268 268 267 267 267 267 267 266 266 265 265 265 264 264 264 264 264 264 264 264 263 263 263 263 263 263 263 263 262 262 262 261 261 261 261 261 262 262 262 262 262 261 262 262 262 263 263 263 264 264 264 263 263 264 264 264 264 264 264 264 264 264 264 264 264 264 264 264 265 265 265 265 265 265 265 265 265 266
270 270 270 269 269 269 268 268 268 267 267 267 267 267 266 266 265 265 264 264 264 264 264 263 263 264 264 264 263 263 263 263 262 262 262 262 262 262 261 261 262 262 262 262 261 261 261 261 261 261 261 261 262 263 263 263 264 264 264 264 264 264 263 263 263 263 263 263 263 263 263 263 264 264 264 264 264 265 265 265 265 265 265 265 265
270 270 269 269 269 269 268 268 268 267 267 267 266 266 266 266 265 265 264 264 264 264 264 264 263 263 264 264 264 263 263 263 262 262 262 262 262 261 262 262 263 262 262 261 261 261 261 260 260 260 261 261 262 263 263 263 263 263 263 263 263 263 263 263 263 263 262 262 262 263 263 263 263 263 263 264 264 264 264 265 265 265 265 265 265
269 269 269 269 269 268 268 268 268 267 267 266 266 266 266 266 265 265 264 264 264 264 264 264 263 263 264 264 264 264 263 263 263 262 262 261 261 261 261 262 263 263 262 261 261 261 261 261 261 261 261 262 262 263 263 263 263 262 263 263 263 262 262 262 262 262 262 262 262 262 262 262 262 262 263 263 263 263 264 264 265 265 265 265 265
269 269 269 269 269 268 268 268 267 267 267 266 266 266 266 266 265 265 264 264 264 264 264 264 263 263 263 264 264 264 263 262 262 262 261 261 260 260 261 262 262 262 262 262 261 261 261 261 261 261 262 262 262 262 262 262 262 262 262 262 262 262 262 261 261 261 261 261 261 261 261 261 261 262 262 262 262 263 263 264 264 264 264 264 264
269 269 269 269 268 268 268 267 267 267 267 266 266 266 266 265 265 265 264 264 264 264 264 264 263 263 263 263 263 263 262 262 262 261 261 261 261 261 261 261 261 261 261 261 261 261 261 261 261 261 261 261 261 261 261 261 261 261 261 261 261 261 261 260 260 260 260 260 261 261 261 261 261 261 261 261 261 262 262 262 263 263 264 264 264
269 269 269 269 268 268 267 267 267 267 267 266 266 266 266 265 265 265 265 264 264 264 263 263 263 263 262 262 262 262 261 261 261 261 261 261 261 261 261 261 261 261 261 261 261 260 260 260 260 260 260 260 260 260 260 260 260 260 260 260 260 260 260 260 260 260 260 260 260 260 260 260 260 260 260 260 261 261 261 261 261 262 263 263 263
269 269 269 268 268 267 267 267 267 267 266 266 266 266 266 265 265 265 265 264 263 263 263 263 263 262 261 261 261 261 261 261 260 260 260 260 260 261 261 261 261 260 260 260 260 260 260 260 260 260 260 260 260 260 260 260 259 259 259 259 260 260 259 259 259 259 259 259 259 259 259 260 260 260 260 260 260 260 260 260 261 261 262 262 262
269 269 269 268 268 267 267 267 266 266 266 266 266 266 266 265 265 265 265 264 264 263 263 263 263 262 260 260 260 260 260 260 260 260 260 260 261 261 261 261 260 260 260 260 260 260 260 259 259 259 259 259 259 259 259 259 259 259 259 259 259 259 259 259 259 259 259 259 259 259 259 259 259 259 259 259 259 259 259 260 260 260 261 261 262
269 269 268 268 268 267 267 266 266 266 266 266 266 266 266 266 265 265 265 265 264 263 262 261 261 260 260 260 261 260 260 260 260 259 260 261 261 261 260 260 260 260 260 260 260 259 259 259 259 259 259 259 259 259 259 259 258 258 258 258 258 259 259 259 259 259 258 258 258 258 258 258 258 258 258 258 258 259 259 259 259 260 260 260 261
269 269 268 268 267 267 267 266 266 266 265 265 265 266 266 266 266 265 264 264 263 263 261 260 260 260 260 261 260 260 260 260 259 259 260 261 261 261 260 260 260 260 260 260 260 259 259 259 259 259 259 259 259 259 259 258 258 258 258 258 258 258 258 258 258 258 258 258 258 258 258 257 257 257 257 257 258 258 259 259 259 260 260 260 261
269 268 268 268 267 267 266 266 266 265 265 265 265 265 265 266 266 266 265 264 263 263 263 262 261 260 260 260 260 260 259 259 258 259 260 261 260 260 260 260 260 260 260 259 259 259 259 259 258 258 258 258 258 258 258 258 258 258 258 258 258 258 258 258 258 258 257 257 257 257 257 257 257 257 257 257 257 258 258 258 259 259 260 260 261
268 268 268 267 267 267 266 266 265 265 265 265 265 265 264 265 265 266 266 265 264 263 263 262 262 261 260 260 260 259 259 259 258 259 259 259 259 259 259 259 259 259 259 259 259 258 258 258 258 258 258 257 257 258 258 257 258 258 257 258 258 257 258 257 257 257 257 257 257 257 257 256 256 256 257 257 257 257 258 258 259 259 260 260 261
268 268 267 267 267 266 266 265 265 265 264 264 264 264 264 264 263 264 265 265 265 265 264 263 262 262 261 261 261 260 260 260 259 259 259 259 259 259 259 258 258 258 258 258 258 258 257 257 257 257 257 257 257 257 257 257 257 257 257 257 257 257 257 257 257 257 257 257 257 256 256 256 256 256 256 256 257 257 258 258 258 259 259 260 260
268 267 267 267 266 266 265 265 265 264 264 264 264 264 264 263 263 263 263 263 264 265 265 264 263 262 262 261 261 260 260 260 260 260 259 259 259 258 257 257 257 256 256 256 257 257 257 256 257 257 257 257 257 257 257 257 257 257 257 257 256 256 257 257 257 257 256 256 256 256 256 256 256 256 256 256 256 257 257 258 258 259 259 259 260
267 267 267 266 266 265 265 265 264 264 264 264 264 264 263 263 262 262 262 262 262 263 264 264 264 263 262 261 261 260 259 259 259 259 258 258 257 257 256 256 256 256 256 256 256 256 255 255 255 255 255 255 256 256 256 256 256 256 256 256 256 256 256 256 256 256 256 256 256 256 256 256 256 256 255 256 256 257 257 258 258 259 259 259 259
267 266 266 266 265 265 265 265 264 264 264 264 264 263 263 263 262 262 261 261 261 261 262 263 263 263 263 262 261 260 259 259 259 258 257 257 257 257 256 256 255 255 255 255 255 255 255 254 254 254 254 254 255 255 255 255 255 255 255 255 256 256 256 256 256 256 256 256 256 256 255 255 255 255 255 255 256 257 257 258 258 258 259 259 259
266 266 266 265 265 265 265 264 264 264 264 264 263 263 263 262 262 261 261 261 261 261 261 262 262 262 262 262 261 259 259 259 259 259 258 257 257 256 256 255 255 254 254 254 253 253 253 254 254 253 253 253 254 254 254 254 255 255 255 255 255 255 255 256 256 256 256 256 255 255 255 255 255 255 255 255 256 257 257 258 258 258 259 259 259
266 266 265 265 265 264 264 264 264 264 264 263 263 263 262 262 262 262 261 261 261 261 261 261 261 261 261 260 259 258 257 257 257 257 257 256 256 255 255 254 253 253 253 252 252 252 252 252 253 253 253 252 252 253 253 254 254 254 254 255 255 255 255 255 255 255 255 255 255 255 255 255 255 255 255 255 256 256 257 257 258 258 258 259 260
266 265 265 265 264 264 264 264 264 264 264 263 263 263 263 262 262 261 261 261 261 261 260 260 260 261 260 258 257 256 255 254 255 255 254 254 254 254 253 253 253 252 252 252 252 251 251 251 252 252 252 252 252 252 252 253 253 253 254 254 254 255 255 255 255 255 255 255 255 255 255 255 255 255 255 255 256 256 257 257 258 258 258 259 259
265 265 265 264 264 264 264 264 264 264 263 263 263 263 263 262 262 261 261 260 260 260 260 260 260 260 259 257 256 254 253 253 253 253 253 253 253 253 253 253 252 252 252 252 251 251 251 251 251 251 251 251 251 251 251 252 252 253 253 253 254 254 255 255 255 255 255 255 255 255 255 255 255 255 255 255 256 256 256 257 258 258 258 259 259
265 265 265 264 264 264 264 264 264 264 264 263 263 263 263 262 261 261 260 260 260 259 259 260 260 259 258 257 256 254 253 253 253 253 253 253 252 252 252 252 252 252 252 251 251 251 251 250 250 250 250 251 251 251 251 251 252 252 252 253 253 254 254 254 255 255 255 255 254 254 254 255 255 255 255 255 255 256 257 257 258 258 258 259 259
265 264 264 264 264 264 264 264 264 264 264 263 263 263 262 262 261 261 260 260 259 259 259 259 259 258 257 256 255 254 253 253 253 253 252 252 252 252 252 252 252 251 251 251 251 251 250 250 250 250 250 250 250 250 250 251 251 251 252 252 253 253 254 254 254 255 254 254 254 254 254 254 255 255 255 255 255 256 257 257 258 258 259 259 260
264 264 264 264 264 264 264 264 264 264 264 263 263 263 262 262 261 260 260 260 259 259 258 258 257 256 256 255 254 253 253 253 252 252 252 252 252 252 252 251 251 251 251 251 251 250 250 250 250 250 250 250 250 250 250 250 250 251 251 252 252 253 254 254 254 254 254 254 254 254 254 254 254 254 255 255 255 256 257 257 258 258 259 259 260
264 264 265 265 265 264 264 264 264 264 264 263 263 263 262 261 261 260 260 259 259 258 257 257 256 255 255 254 253 253 252 252 252 252 251 251 251 251 251 251 251 251 251 251 251 250 250 250 250 250 249 249 249 249 249 249 250 250 250 251 252 253 253 254 254 254 254 254 254 254 254 254 254 254 255 255 255 256 257 258 258 258 259 259 260
265 265 265 265 264 264 264 264 264 263 263 263 263 262 262 261 261 260 260 259 258 257 257 256 255 255 254 253 252 252 251 251 251 251 251 251 251 251 251 251 251 251 251 251 250 250 250 250 250 249 249 249 249 249 249 249 249 249 250 251 251 252 253 253 254 254 254 254 254 254 254 254 254 254 255 255 255 256 257 257 258 258 259 259 259
265 265 265 264 264 264 264 264 264 263 263 263 262 262 262 261 261 260 259 259 258 257 256 256 255 254 253 252 252 251 251 251 251 251 251 251 251 251 251 251 251 251 251 250 250 250 250 250 249 249 249 249 249 249 249 249 249 249 250 250 251 252 252 253 253 254 254 254 254 254 254 254 254 255 255 255 255 256 257 257 258 258 259 259 260
265 265 264 264 264 264 264 264 263 263 263 262 262 262 261 261 260 260 259 258 257 257 256 255 254 253 252 251 251 251 251 251 251 251 251 251 251 251 251 251 251 251 250 250 250 250 250 249 249 249 249 248 248 248 248 248 248 249 249 250 251 251 252 253 253 254 254 254 254 254 254 254 254 254 255 255 255 256 257 257 258 258 259 259 260
265 265 264 264 264 264 264 263 263 263 262 262 262 261 261 260 260 259 259 258 257 256 255 254 253 252 251 251 251 251 250 250 250 250 251 251 251 251 251 251 250 250 250 250 250 250 249 249 249 249 248 248 248 248 248 248 248 249 249 250 250 251 252 252 253 253 254 254 254 254 254 254 254 254 255 255 255 256 257 257 258 258 259 260 260
265 265 264 264 264 264 263 263 263 262 262 261 261 261 260 260 259 259 258 257 256 255 254 253 252 251 251 251 250 250 250 250 250 250 250 251 251 251 250 250 250 250 250 250 250 249 249 249 249 248 248 248 248 248 248 248 248 248 249 250 250 251 251 252 253 253 254 254 254 254 254 254 254 254 255 255 256 256 257 257 258 258 259 260 260
265 265 264 264 264 264 263 263 263 262 262 261 261 260 260 259 259 258 257 256 256 254 253 252 251 251 251 250 250 250 250 250 250 250 250 250 250 250 250 250 250 250 250 249 249 249 249 248 248 248 248 248 247 247 247 247 248 248 249 250 250 251 251 252 253 253 254 254 254 254 254 254 254 255 255 255 256 256 257 257 258 258 259 260 260
Wind_Speed
33 35 36 35 34 33 31 30 30 31 32 33 33 32 30 29 28 28 28 29 29 28 28 26 25 25 25 26 27 26 26 25 25 24 24 24 23 23 23 23 23 24 23 23 22 22 23 24 24 23 22 24 24 24 24 24 25 26 25 27 27 26 27 28 33 42 42 38 39 40 37 37 37 35 35 35 34 32 31 33 34 35 37 38 38
32 33 33 33 33 31 30 30 30 31 32 32 31 30 29 28 27 28 29 29 29 29 28 27 26 26 26 26 27 27 27 26 26 25 25 25 24 24 24 24 24 24 24 24 23 22 23 24 25 24 23 24 25 24 24 24 24 26 25 26 27 27 26 28 31 38 42 40 38 38 35 34 35 34 32 33 34 32 32 32 32 33 34 36 39
30 31 32 32 31 30 30 30 31 31 31 31 31 29 28 27 27 28 30 30 29 29 28 27 27 27 27 27 27 27 27 27 26 26 25 25 26 25 25 25 25 26 25 25 24 23 24 25 24 23 22 24 25 24 24 24 24 25 26 25 27 27 26 28 31 34 39 40 37 35 30 27 28 28 27 30 31 31 32 32 31 31 31 32 35
29 30 31 30 30 30 31 31 31 31 31 31 31 29 28 28 28 29 30 30 30 29 28 28 27 27 27 27 27 27 27 26 26 26 25 26 26 27 26 26 26 27 26 26 25 24 24 25 24 22 22 24 25 24 24 24 25 25 27 26 26 27 27 27 29 32 35 38 37 33 27 24 26 28 29 32 33 32 33 33 31 30 30 30 31
30 30 30 30 30 31 31 31 31 32 32 32 31 29 29 29 30 30 30 30 30 29 29 28 27 27 27 27 27 27 27 27 27 26 26 26 27 27 27 27 27 27 27 26 25 24 24 24 23 22 23 24 25 25 24 25 26 27 28 28 27 27 27 27 29 30 32 36 38 36 33 31 34 35 33 32 32 32 33 32 31 30 29 28 28
30 30 30 31 31 31 32 32 32 32 32 32 31 29 29 30 30 30 30 30 30 29 29 28 27 27 27 27 27 28 27 28 28 27 27 27 27 27 28 28 27 27 26 26 25 24 23 24 24 23 24 25 26 25 25 26 27 28 29 29 28 27 28 28 28 29 31 34 37 37 36 34 33 34 32 28 28 31 32 33 32 30 29 28 27
30 30 30 31 31 32 32 32 32 32 33 32 31 30 30 30 30 30 30 30 30 29 29 28 28 28 28 28 28 28 28 28 28 28 28 28 27 28 28 27 27 26 26 25 24 24 24 24 25 25 25 26 27 26 26 26 27 28 28 29 29 28 29 29 28 28 30 33 35 36 36 33 30 32 31 27 27 30 31 31 32 30 27 27 27
29 30 30 31 32 32 32 32 32 33 33 31 30 29 29 29 29 30 30 30 29 29 29 28 28 28 29 29 29 29 29 29 29 28 28 28 28 28 27 27 26 26 25 25 25 26 26 26 27 27 27 27 27 27 26 26 28 29 29 29 29 29 29 29 28 29 30 33 35 36 36 34 31 31 30 25 26 30 29 27 30 30 29 28 28
29 30 31 32 32 32 32 32 33 33 32 30 29 28 28 28 29 30 29 29 29 29 29 29 29 29 30 30 30 30 30 30 29 28 29 29 29 28 27 26 26 26 27 27 28 28 29 29 29 29 29 28 28 27 28 28 29 31 30 29 29 30 30 31 31 32 33 35 38 38 37 37 34 32 30 28 28 30 29 27 30 32 32 32 31
30 30 31 31 31 31 32 33 32 31 30 29 28 27 28 28 29 29 28 29 29 29 30 29 30 30 31 31 31 31 31 30 29 28 28 29 28 28 28 27 27 29 30 30 30 30 30 31 31 31 30 30 29 29 29 29 28 29 29 28 29 31 33 35 35 35 36 38 40 40 39 40 38 35 35 35 34 33 32 32 34 34 33 35 35
29 29 30 30 30 32 32 31 30 29 28 27 27 27 28 28 28 28 28 29 29 29 29 30 30 31 31 32 32 32 32 30 29 29 28 27 26 27 28 28 29 30 31 32 32 32 32 32 32 32 32 31 31 31 30 30 30 30 31 32 32 33 34 36 37 37 38 40 42 41 41 42 41 38 38 38 37 35 34 34 34 35 34 35 38
28 29 29 30 31 31 31 29 27 27 26 26 26 27 28 28 28 28 28 28 28 29 29 30 30 31 32 33 33 33 32 30 29 29 28 26 25 26 28 29 30 31 32 32 33 33 34 34 34 34 34 33 33 32 32 32 33 34 35 36 35 34 33 34 36 37 38 40 41 41 40 40 39 38 38 37 35 34 34 33 33 34 35 35 38
28 28 29 30 31 30 28 27 26 25 25 25 26 27 28 28 28 28 28 28 28 29 29 30 31 31 32 33 33 33 32 31 29 29 28 27 25 25 27 29 31 32 33 34 34 34 35 35 35 35 35 34 34 33 33 33 34 35 36 36 35 34 32 31 32 34 36 38 40 41 40 38 38 38 36 33 32 31 31 31 31 32 34 35 37
27 28 29 30 29 28 26 25 25 25 25 26 27 27 27 28 28 27 27 28 28 29 30 30 31 31 32 32 33 33 33 31 30 29 28 28 26 25 27 30 32 34 35 35 36 36 36 36 36 36 35 34 33 33 33 34 34 35 35 35 34 32 31 30 30 32 33 35 39 41 41 40 40 41 40 36 36 37 37 37 37 37 39 39 38
27 28 29 28 27 26 25 25 25 26 26 26 27 28 28 28 27 27 27 28 29 30 30 31 31 31 31 32 33 34 33 31 30 29 28 28 27 27 28 31 33 35 36 36 36 37 37 36 37 36 35 34 33 33 33 33 33 33 33 32 32 30 30 30 29 29 30 31 33 35 36 35 36 38 38 37 37 39 39 40 40 41 42 42 40
27 28 28 27 26 25 25 25 27 27 27 27 27 28 27 27 27 27 28 29 30 30 31 31 32 32 31 32 33 34 33 31 29 29 28 28 27 28 30 32 34 35 36 36 36 36 35 35 35 35 34 33 33 31 30 29 30 31 32 31 31 31 31 29 27 27 28 29 31 32 33 33 33 34 35 35 35 36 36 39 41 41 42 42 42
27 27 27 27 26 26 26 26 27 27 27 27 27 27 27 27 28 28 29 30 30 31 31 31 32 32 32 32 33 34 33 31 29 29 28 27 27 28 30 31 32 34 35 35 34 34 34 33 32 32 32 32 31 29 27 26 28 30 31 31 32 32 31 30 29 29 30 32 33 34 34 34 34 32 31 31 29 27 28 31 33 35 38 41 42
27 26 27 27 27 27 26 27 27 27 27 27 27 27 27 28 28 28 29 30 31 31 31 32 32 33 33 33 33 34 34 31 28 28 28 26 26 28 30 31 32 34 35 34 34 33 32 31 29 30 30 31 30 27 24 24 26 28 29 30 31 32 32 32 32 33 32 32 33 34 35 35 35 33 33 32 29 27 27 26 24 25 28 32 36
26 26 27 27 26 26 26 27 27 27 27 27 27 27 28 28 28 28 29 30 31 31 32 32 33 33 33 33 33 33 33 31 28 27 27 26 27 28 30 31 32 33 34 34 33 32 30 29 27 27 28 29 28 26 24 24 26 27 28 30 33 34 33 32 33 33 32 32 33 35 36 37 37 37 37 36 35 34 32 30 26 24 25 27 28
25 27 27 26 26 25 25 26 26 26 26 27 27 28 28 28 28 28 29 30 31 32 32 32 34 34 33 33 32 31 31 30 28 27 27 26 26 27 28 30 31 33 33 32 32 31 29 27 25 25 27 28 27 27 26 26 27 28 29 31 34 35 33 33 33 32 31 31 33 34 35 36 38 38 38 38 37 36 35 33 31 30 29 30 30
26 26 26 25 25 25 25 25 25 26 26 27 28 28 28 28 28 29 29 30 31 32 32 32 33 34 32 32 31 30 29 29 28 26 26 26 26 26 27 29 30 32 32 30 30 30 29 27 26 26 27 28 28 27 26 26 26 28 30 32 33 32 29 28 26 26 26 28 30 32 34 35 37 38 38 38 38 38 38 37 35 33 32 31 31
25 25 25 25 24 24 24 24 25 25 26 26 28 28 28 28 29 29 29 30 31 32 32 32 32 33 32 31 30 29 27 27 26 25 24 25 26 25 26 28 28 28 29 29 29 30 30 29 27 27 27 29 29 28 28 27 27 28 30 31 30 26 23 22 23 24 27 29 31 34 36 37 38 39 39 39 38 38 38 38 37 35 34 32 31
25 25 24 24 23 23 23 23 24 25 26 26 27 29 29 28 29 29 29 30 31 31 32 31 31 32 31 30 29 27 25 24 23 23 23 23 23 23 24 25 24 24 26 29 30 31 31 30 29 29 30 31 31 30 29 28 28 29 30 29 26 25 25 26 28 29 31 33 35 37 39 39 41 42 41 41 40 39 39 40 39 38 37 35 33
24 24 24 23 23 22 23 23 24 25 25 26 28 29 29 29 29 29 29 29 30 31 31 31 30 31 31 30 28 25 23 21 21 21 20 19 19 20 21 22 22 23 27 31 33 34 34 34 33 32 32 31 29 28 27 27 28 29 29 28 29 30 31 32 32 33 34 35 37 38 40 40 41 42 42 41 40 41 42 43 43 42 41 39 37
24 24 23 23 22 22 23 23 24 25 25 26 28 28 28 29 29 29 29 29 30 31 30 30 30 30 30 30 28 24 21 19 18 17 17 17 19 20 22 23 24 26 30 34 35 36 35 34 31 29 28 28 28 29 30 31 31 31 32 32 34 34 34 34 34 34 35 36 37 38 40 40 39 39 39 38 38 40 41 43 44 44 43 42 42
24 24 24 23 22 22 23 23 24 25 25 26 28 28 28 29 29 29 29 29 29 30 30 29 29 30 29 28 27 23 19 17 17 17 18 21 23 24 25 25 25 26 29 31 32 32 31 30 29 28 29 30 32 33 34 34 34 34 33 33 34 34 33 33 33 33 34 35 36 37 38 37 36 36 36 35 36 36 36 37 39 41 41 41 42
24 24 24 23 22 22 23 24 25 25 26 27 27 28 28 28 29 30 29 29 29 29 29 29 29 29 28 26 24 22 19 19 21 22 23 26 28 27 26 23 22 22 24 26 27 28 28 29 29 30 31 31 31 31 31 31 31 31 29 29 30 31 31 32 32 33 34 34 35 35 35 34 34 34 33 33 33 33 31 31 34 36 36 36 37
25 25 24 23 23 23 24 25 26 26 27 27 28 29 29 29 29 30 29 28 28 28 28 28 28 27 26 25 24 24 25 27 27 27 28 29 28 26 24 22 22 24 25 27 28 29 29 30 30 30 29 29 30 30 30 29 29 29 28 29 30 30 31 31 32 33 33 33 33 33 33 32 32 32 31 31 30 30 28 29 30 32 32 31 32
25 25 24 24 24 24 24 26 27 27 28 28 28 29 29 29 30 30 29 27 27 27 27 28 27 26 26 26 27 29 31 31 29 29 29 28 27 26 26 26 26 27 27 28 28 28 28 27 28 28 28 29 30 30 30 29 29 29 30 30 31 31 31 32 32 33 33 32 31 31 30 30 30 29 28 28 28 27 27 27 28 29 28 28 30
25 26 24 24 24 25 26 27 27 28 29 29 29 30 29 29 29 30 29 27 26 26 27 27 26 26 28 30 30 30 31 30 28 27 28 27 28 29 28 27 27 27 28 28 28 27 27 26 27 28 28 30 31 31 31 31 31 31 31 31 31 31 31 32 32 32 31 30 30 29 29 28 28 27 25 25 26 27 26 26 26 25 25 26 29
26 26 25 24 24 25 27 28 28 28 29 29 30 31 31 30 29 28 27 26 25 24 24 23 24 24 26 28 28 29 29 28 28 29 29 27 26 27 28 28 27 27 29 30 30 30 31 31 31 31 31 31 32 32 32 32 32 32 32 32 32 31 32 32 31 29 29 28 28 28 27 26 25 24 24 25 26 27 26 25 24 24 25 26 28
27 26 25 25 25 26 28 28 28 29 29 29 30 30 31 32 32 30 28 26 26 25 23 22 22 23 23 23 25 26 27 26 27 27 26 24 26 28 29 29 27 27 30 32 32 32 32 33 33 33 32 32 33 32 32 32 33 33 34 34 33 32 31 30 29 28 27 27 27 27 26 24 23 23 24 25 26 26 26 25 24 23 24 26 27
27 26 26 26 26 27 28 28 29 29 29 29 29 29 30 31 32 32 31 29 28 27 25 23 22 22 23 24 25 26 27 26 24 23 25 28 30 28 27 25 24 25 29 32 32 32 32 32 32 33 33 33 33 33 33 34 34 34 35 35 33 31 30 28 27 27 27 26 26 25 24 23 22 24 25 25 25 25 25 24 24 23 24 25 26
26 26 26 26 27 28 28 28 29 29 29 29 29 29 29 29 31 32 33 33 32 30 28 25 23 22 23 24 25 26 26 25 24 25 27 27 24 21 22 24 24 26 28 30 31 32 33 34 35 35 35 35 35 34 34 34 34 33 33 33 31 30 28 27 27 26 26 25 24 23 23 23 23 23 24 24 24 24 24 23 23 23 23 24 24
26 26 25 26 27 29 29 29 29 29 28 28 28 28 29 29 29 30 31 32 33 33 31 28 26 24 23 24 24 24 24 24 25 25 24 21 18 18 23 26 27 28 30 30 32 33 34 35 35 35 35 35 34 34 33 33 32 32 31 31 29 28 27 26 26 26 25 24 23 23 22 22 22 22 23 24 24 23 23 23 22 23 23 23 23
25 25 25 26 27 28 29 28 28 28 28 28 28 28 29 29 29 30 30 30 31 32 31 30 27 26 25 24 24 23 23 24 24 23 21 19 18 20 25 28 29 30 30 30 30 31 31 32 32 31 31 32 32 32 31 31 30 30 30 29 28 27 27 26 26 25 24 23 22 22 22 21 21 21 22 23 23 22 22 22 22 22 22 21 21
24 25 26 26 27 28 28 28 27 27 27 27 28 28 29 29 29 30 30 30 30 30 31 30 29 28 27 24 23 23 24 24 24 23 22 21 22 24 27 30 30 29 29 28 27 28 29 29 29 29 29 29 29 29 29 29 28 28 28 28 27 27 26 26 25 24 23 23 22 21 21 21 21 20 21 22 22 21 21 21 21 21 21 20 20
24 25 26 27 27 28 28 27 27 27 27 28 28 28 29 30 30 29 30 30 30 30 30 30 29 29 28 26 24 23 24 25 25 25 24 24 24 24 25 26 26 26 26 25 24 25 26 27 27 27 27 27 26 26 26 27 27 27 27 27 26 26 25 25 24 24 23 22 22 21 21 21 21 20 20 21 21 20 20 20 20 21 21 20 19
25 26 27 27 27 27 27 27 27 27 27 28 28 29 29 30 30 30 30 29 29 30 30 30 30 29 28 27 25 24 25 26 27 26 26 25 25 24 25 25 26 26 25 24 23 23 24 25 26 26 26 25 25 24 24 25 25 25 26 26 26 25 25 24 24 24 22 21 21 21 20 21 21 20 19 19 19 19 19 19 19 20 21 20 20
26 26 26 26 26 26 26 26 26 27 27 28 29 29 30 30 30 30 29 29 30 30 30 30 30 29 27 26 25 24 24 26 27 27 27 27 27 26 26 26 26 25 24 23 22 22 22 22 23 24 24 24 24 23 23 23 24 24 25 25 25 25 24 24 23 23 22 21 20 20 20 21 20 20 19 18 18 18 18 18 18 19 19 20 19
26 27 26 25 25 26 26 26 26 27 27 28 29 29 29 30 29 29 29 29 30 30 30 30 30 28 27 25 24 22 23 25 26 27 27 27 27 26 25 24 24 23 22 21 21 21 20 20 21 22 22 23 23 22 22 22 23 24 24 25 25 24 24 23 23 22 21 20 20 20 20 20 20 19 18 17 17 17 17 18 18 18 18 18 18
26 26 26 25 25 25 26 26 26 27 28 29 29 29 30 29 29 29 29 29 29 30 30 30 30 28 27 26 24 22 23 25 26 26 26 25 25 24 22 21 21 20 20 20 19 19 20 20 20 21 21 22 22 22 22 22 22 23 24 24 24 24 23 23 22 21 20 20 20 20 20 20 19 18 18 17 17 17 16 17 17 17 17 17 16
25 25 25 25 25 25 25 26 27 27 28 29 29 30 30 30 29 29 29 29 29 29 29 29 29 28 27 26 25 24 24 24 24 24 24 24 23 23 21 20 19 18 18 18 18 18 19 20 20 20 20 21 21 21 21 21 21 22 23 24 24 23 23 22 21 20 19 20 20 20 20 19 19 18 17 17 17 17 16 16 16 16 16 16 15
24 25 25 25 25 26 26 26 27 27 28 29 30 30 30 30 30 29 29 29 29 28 28 29 29 28 28 27 25 24 24 24 24 24 24 23 23 22 21 19 19 18 17 17 17 18 19 19 20 20 20 20 19 19 20 20 20 21 22 23 23 23 22 21 20 19 19 19 20 19 19 19 18 17 17 16 16 16 16 15 15 15 15 15 15
24 24 25 26 26 26 26 26 27 28 29 29 30 30 30 30 30 30 29 29 29 29 28 28 28 28 28 27 26 25 25 25 24 24 23 23 22 21 19 18 18 17 17 17 17 18 18 18 19 19 19 19 19 19 19 19 19 20 21 22 22 22 21 19 18 18 18 19 19 18 18 18 17 17 17 16 16 16 15 15 14 15 15 15 14
24 25 26 26 26 27 27 27 27 29 29 30 30 31 31 30 30 30 30 29 29 29 28 28 28 27 27 26 26 25 25 25 24 24 23 22 21 19 18 18 17 17 16 16 16 17 17 17 18 18 19 20 20 20 19 18 18 20 21 21 21 21 20 18 18 17 17 18 18 18 17 17 17 16 16 16 15 15 15 14 14 14 14 14 14
25 25 26 27 27 27 27 28 28 29 30 30 31 32 31 31 31 30 30 29 29 28 28 28 27 27 27 26 26 26 25 25 24 23 21 20 19 18 17 17 17 17 16 16 16 16 17 17 17 18 19 20 20 20 19 18 18 19 20 20 20 20 19 18 17 17 17 17 17 17 16 17 16 16 16 15 15 15 14 14 13 14 14 13 13
26 26 26 27 27 28 28 28 29 30 31 31 32 32 32 31 31 30 30 30 29 28 28 27 27 27 26 26 26 26 25 23 22 21 20 19 18 17 17 16 16 16 16 15 15 16 17 17 17 18 19 19 19 19 18 17 18 19 19 19 19 19 18 17 17 17 16 16 16 16 16 16 16 16 15 14 14 14 13 13 13 13 12 12 12
26 27 27 27 28 28 28 29 30 31 31 31 32 32 32 31 31 31 30 30 29 28 28 27 27 26 26 26 26 25 23 22 21 20 19 19 18 17 16 16 15 15 15 15 15 16 17 17 17 18 18 18 18 18 17 17 18 18 18 18 17 17 17 16 16 16 16 16 16 16 16 16 16 16 15 14 13 13 13 13 12 12 11 11 11
26 27 27 28 28 28 29 30 30 31 31 32 32 32 32 32 31 31 30 30 29 28 27 27 26 26 26 25 25 23 22 21 20 19 19 18 17 16 16 15 15 15 15 15 15 16 17 17 17 17 17 17 17 17 16 17 17 18 17 16 16 16 15 16 16 16 16 16 15 15 15 16 16 15 14 13 12 13 13 12 12 11 10 10 10
27 27 27 28 28 28 29 30 30 31 32 32 32 32 32 32 31 31 30 29 29 28 27 27 26 26 25 24 23 22 21 20 19 19 19 18 17 16 16 15 15 15 15 15 15 16 16 16 16 16 16 16 17 17 17 17 17 17 16 15 15 15 15 15 16 16 15 15 14 14 15 16 15 14 13 12 12 12 12 11 10 10 9 10 10
Wind_Direction
265 265 266 269 271 273 274 275 278 283 290 295 298 299 297 294 293 293 293 293 293 293 292 290 287 286 286 286 287 289 288 288 287 286 285 285 286 287 287 288 287 287 288 287 287 288 287 286 286 286 286 286 285 284 283 283 283 282 282 282 281 281 283 282 282 284 288 290 291 292 293 293 291 289 289 287 283 278 273 270 268 266 261 257 253
265 265 266 268 271 272 273 275 280 287 294 297 298 297 294 292 292 293 293 293 293 292 291 289 288 288 287 287 287 287 286 286 287 287 286 286 287 287 288 288 288 288 288 288 289 289 287 286 286 287 287 286 285 285 284 284 284 283 282 282 282 282 283 284 285 287 290 292 294 295 296 296 293 292 291 287 286 285 279 273 271 270 267 264 260
265 265 266 268 270 271 273 278 286 292 297 299 298 295 292 291 291 292 292 292 291 291 290 289 288 288 288 287 285 284 284 284 285 285 286 287 288 288 289 289 290 290 289 290 291 290 288 287 286 288 287 284 283 283 285 285 285 284 283 283 283 283 285 286 286 288 291 293 294 295 297 298 295 293 291 288 288 288 285 280 276 273 271 268 265
266 265 267 269 270 272 276 283 290 295 299 300 297 293 291 290 290 290 290 290 290 291 290 289 287 286 285 284 283 282 282 282 283 284 285 287 288 289 290 290 289 289 289 290 291 290 288 287 287 288 285 283 282 283 284 285 286 285 285 284 284 284 286 286 285 286 288 290 291 291 291 290 287 286 287 289 289 288 287 285 282 278 274 272 270
267 267 267 269 271 275 281 287 292 297 300 300 296 292 289 288 288 289 289 289 290 290 289 287 285 283 281 281 282 283 283 283 283 283 285 286 287 287 288 288 288 288 289 289 288 287 286 285 286 287 285 283 284 285 284 284 284 284 284 284 284 285 285 284 283 284 285 286 288 289 288 287 288 289 291 292 292 290 289 287 286 283 279 275 273
266 266 267 270 275 280 286 290 293 297 300 298 293 289 287 287 287 287 288 288 288 287 286 285 284 282 281 281 282 284 285 285 284 284 285 285 286 286 286 286 286 287 287 286 285 284 282 282 282 282 283 283 284 284 283 283 282 282 282 283 284 285 284 283 283 283 282 283 286 289 290 291 292 294 294 294 293 292 292 291 289 287 285 281 275
265 266 270 275 280 285 289 291 294 298 298 295 289 286 285 285 285 286 287 287 286 284 284 284 284 283 282 281 283 284 285 285 284 285 285 285 285 285 285 286 286 287 285 283 282 281 279 278 278 278 279 281 282 283 284 284 284 283 283 284 285 285 285 284 283 281 281 283 286 288 290 291 291 292 293 293 291 289 290 292 293 291 288 283 275
266 270 275 280 284 287 290 292 295 297 295 289 286 285 284 285 285 286 287 286 285 284 283 284 284 282 282 282 282 284 284 284 284 284 285 285 286 285 286 287 285 283 281 279 277 276 276 276 277 278 279 280 281 282 283 284 284 283 283 283 284 285 286 287 286 284 284 285 287 288 289 289 288 289 291 289 286 287 291 294 294 292 288 283 278
271 275 279 282 286 288 290 292 294 293 290 286 284 284 284 285 285 286 286 286 285 285 285 284 283 281 280 281 281 283 283 284 284 285 285 286 286 286 286 286 284 281 280 279 278 277 278 279 280 280 281 282 283 284 285 286 286 286 287 288 289 290 290 291 290 289 288 287 286 286 286 284 283 283 283 281 280 284 288 289 287 287 289 288 282
274 277 280 283 287 288 290 292 292 289 286 284 284 284 284 285 285 285 285 286 286 286 285 283 281 280 279 280 281 281 282 283 284 285 286 287 290 291 291 290 289 287 286 286 285 284 284 285 285 286 286 286 287 287 288 287 284 283 284 285 287 288 289 289 287 286 284 283 282 283 282 281 281 280 280 281 282 283 284 284 284 287 290 289 283
275 278 281 284 287 288 290 290 289 286 283 282 283 283 284 284 283 283 284 286 286 285 284 281 279 279 279 280 280 281 281 283 285 285 285 287 289 289 289 288 285 284 284 284 284 283 283 283 283 283 284 285 285 285 285 282 278 276 275 275 276 276 276 277 277 277 277 277 278 279 278 278 281 282 282 283 284 283 282 282 284 286 286 285 284
277 279 282 286 288 289 290 290 287 283 281 281 282 283 283 282 282 283 284 285 285 284 281 280 279 278 279 279 280 281 282 283 284 284 284 284 282 282 281 280 278 278 278 278 278 278 278 279 279 279 280 282 283 283 282 281 280 279 279 279 278 276 273 271 270 270 271 273 275 277 277 278 281 282 283 284 284 284 284 281 279 280 280 279 280
277 280 285 289 290 291 291 289 285 283 282 283 283 282 282 281 282 284 285 285 285 283 281 280 279 279 279 280 281 282 282 283 283 283 283 281 278 276 274 273 273 274 275 275 275 276 277 278 279 280 281 282 282 282 282 282 281 280 280 281 281 280 277 273 270 268 268 269 271 271 271 273 275 275 276 278 281 281 280 278 277 276 275 275 277
278 283 288 291 291 292 291 288 285 285 285 285 284 282 282 283 285 286 287 286 285 283 282 281 280 280 280 281 282 281 282 283 284 283 283 281 278 273 271 271 272 272 272 272 272 273 275 276 278 279 280 281 281 280 280 280 280 280 281 281 280 279 277 274 271 269 267 267 268 268 269 269 271 272 273 273 273 272 271 272 272 272 273 275 280
281 287 291 293 294 293 291 287 286 286 287 287 286 285 285 286 288 289 288 287 285 284 284 283 282 282 282 282 282 282 282 284 284 283 282 279 277 272 270 270 270 269 269 269 269 271 273 274 276 278 280 280 280 279 279 280 281 282 282 281 281 280 278 276 274 272 269 267 268 270 271 271 271 272 273 272 271 271 272 271 271 271 271 273 276
287 293 295 295 294 292 289 287 287 288 289 289 288 288 289 290 290 290 288 287 285 285 285 285 284 284 283 282 282 282 283 284 283 281 279 277 275 272 269 269 269 269 269 268 268 270 271 273 276 278 279 280 279 279 279 280 282 283 283 283 283 283 282 282 281 278 275 275 274 275 275 275 274 274 275 276 275 277 278 276 274 271 267 266 268
293 296 295 294 292 290 289 288 288 290 290 290 290 291 292 291 291 290 289 287 286 286 286 286 285 285 284 284 284 284 284 284 282 280 278 276 274 273 272 273 274 273 271 270 269 269 271 274 276 278 279 278 278 278 278 278 279 280 280 281 281 283 284 286 285 280 278 278 276 275 275 276 276 276 276 276 276 279 281 280 279 277 269 262 263
296 295 292 290 289 290 290 289 289 290 291 292 293 293 293 292 291 290 289 288 288 288 288 287 286 286 285 285 285 285 285 285 283 280 278 275 272 271 271 272 272 272 272 271 271 271 272 275 276 277 277 276 277 279 279 277 277 277 277 278 279 279 278 280 281 281 280 278 275 272 271 271 271 271 271 271 271 275 280 281 282 283 276 267 265
293 289 287 288 290 290 290 290 290 292 293 294 295 294 294 293 292 291 289 289 288 288 288 288 287 286 286 286 286 286 286 285 283 280 277 273 271 270 270 271 272 272 272 273 273 274 276 277 276 274 273 274 277 279 277 274 273 273 275 276 277 277 279 281 283 283 282 280 278 276 273 271 271 272 273 273 272 273 276 279 279 279 279 276 273
288 286 287 290 291 291 291 291 292 293 294 295 295 294 294 293 293 291 290 289 289 288 288 287 287 287 287 287 287 286 286 286 283 279 276 272 269 267 269 271 272 272 273 274 276 278 277 276 273 269 267 268 270 271 270 269 269 270 273 276 278 281 285 284 281 277 274 273 273 274 274 273 272 273 275 275 274 274 275 278 280 280 280 280 279
285 286 289 291 292 292 293 293 293 294 295 294 294 294 294 294 292 291 291 290 289 288 288 288 288 288 289 288 288 287 286 285 283 278 274 270 266 263 264 266 269 272 274 275 277 278 277 275 274 271 267 266 267 269 270 270 270 272 276 278 281 283 281 273 267 263 262 264 266 268 269 271 271 272 274 276 277 277 278 279 281 282 281 279 278
285 288 290 292 293 294 295 294 294 295 294 295 294 294 294 294 292 291 291 290 289 289 289 289 289 289 290 289 288 287 285 284 281 277 272 267 263 260 260 262 265 270 274 277 278 279 280 279 277 274 271 271 274 277 279 279 279 279 278 277 278 277 269 261 260 262 265 268 271 273 273 275 276 276 276 277 278 279 279 279 280 280 279 277 274
287 289 291 295 296 297 297 296 296 296 296 296 294 293 294 294 293 292 291 291 291 290 290 290 290 290 290 290 289 288 286 283 280 275 270 266 263 261 259 260 261 264 271 277 279 279 279 278 275 274 274 277 281 284 284 282 279 277 274 272 269 266 263 265 270 274 276 278 280 280 280 281 282 282 282 282 281 280 279 278 278 278 278 277 274
289 291 294 297 299 299 299 298 298 298 297 296 294 294 295 295 294 294 293 292 291 291 291 292 291 290 291 291 291 291 289 285 277 271 267 266 263 262 260 259 258 260 265 271 273 274 275 276 277 278 280 281 281 280 276 273 269 268 267 266 264 265 268 273 278 281 283 283 283 284 284 284 285 285 286 286 285 282 280 278 278 278 277 277 275
290 294 297 299 301 302 300 299 299 298 297 296 295 295 296 296 296 295 294 293 292 292 292 292 291 291 293 293 294 295 292 286 276 268 266 268 269 268 267 266 264 263 264 266 267 270 273 276 278 278 275 273 271 269 268 268 268 268 268 268 270 272 275 278 281 283 285 285 286 286 286 287 287 286 285 285 283 281 280 279 278 277 276 275 274
293 297 299 302 303 303 301 300 300 299 298 297 297 297 297 297 297 296 295 294 294 293 293 292 292 292 293 295 297 298 293 285 278 275 275 276 277 278 279 278 273 267 264 264 266 268 271 271 271 270 268 267 267 268 269 271 271 271 271 271 273 276 278 280 283 285 286 287 288 288 288 287 287 285 284 283 281 280 279 278 276 275 274 273 273
295 298 301 303 304 303 302 302 301 301 300 299 298 298 298 298 298 297 297 296 296 295 294 293 293 293 295 298 300 300 297 294 293 291 289 288 289 292 293 288 278 271 267 267 268 270 272 271 271 271 270 269 268 269 270 271 273 273 273 273 274 277 280 283 286 287 289 290 290 289 288 287 286 285 284 283 282 282 281 279 277 275 274 274 275
296 299 302 304 304 304 304 303 302 303 302 301 301 300 300 300 299 299 299 298 296 294 293 293 293 295 298 301 304 305 305 304 303 300 296 295 296 297 293 286 281 278 276 274 274 275 275 276 275 275 274 272 273 273 274 275 276 278 278 278 279 281 283 284 286 287 289 290 289 287 287 286 285 285 284 284 283 283 281 279 277 277 276 276 276
296 299 303 304 305 305 303 303 303 303 303 302 302 301 301 301 300 300 300 299 297 296 296 296 298 302 303 304 306 306 304 303 303 300 299 300 299 295 290 287 284 281 279 280 281 281 279 277 276 275 275 275 277 278 277 276 277 277 278 279 280 281 282 284 286 287 288 288 287 286 286 286 284 284 284 283 282 280 278 278 278 279 278 276 272
296 300 303 304 304 304 303 303 304 303 303 304 303 302 302 301 301 302 303 302 301 300 298 296 297 299 299 299 300 299 298 299 299 294 292 293 291 288 286 283 279 277 278 279 278 275 273 271 271 272 273 275 276 276 276 276 275 275 274 275 276 278 282 284 286 287 287 286 285 285 285 285 285 284 284 282 280 279 280 282 282 280 277 274 271
298 301 303 303 303 303 303 304 304 304 304 305 305 304 303 302 301 302 303 302 299 296 293 289 284 283 285 287 287 286 287 288 284 281 283 286 283 277 272 269 270 274 275 272 267 264 264 264 265 267 269 270 270 272 272 272 272 273 273 275 277 280 283 285 285 285 284 284 284 284 285 285 285 283 281 280 281 283 285 285 284 282 279 276 274
298 301 302 302 302 303 303 304 304 304 305 305 305 305 305 304 303 303 303 302 300 296 294 288 281 277 276 276 275 276 277 279 280 283 285 280 272 267 266 268 271 272 268 265 264 264 264 264 264 265 266 266 267 268 269 269 270 273 275 277 279 281 282 283 283 282 282 282 283 284 284 284 282 279 278 279 283 286 287 286 286 285 283 280 277
297 299 300 300 301 303 303 304 304 304 305 306 306 305 305 305 305 306 305 304 302 299 297 292 286 280 275 271 269 269 271 274 278 280 274 267 266 270 273 273 270 265 262 262 263 264 264 265 265 266 266 267 268 268 269 269 271 273 275 277 279 280 280 280 281 281 281 281 282 283 283 282 279 277 278 281 284 285 286 288 290 289 287 285 282
295 296 297 299 301 302 303 304 304 304 305 306 305 305 305 305 306 306 306 305 303 302 300 298 295 290 283 278 275 274 273 273 272 270 269 270 275 281 281 275 268 263 262 262 261 262 264 265 267 268 269 270 271 270 270 271 271 272 273 274 276 277 278 278 279 279 279 280 280 281 280 278 277 278 280 282 284 285 287 289 292 292 291 289 288
293 294 296 299 301 303 304 304 304 305 305 305 306 305 305 305 305 305 305 305 304 303 302 302 302 301 296 291 288 286 285 282 278 277 279 283 287 286 282 277 272 268 266 265 265 266 267 268 269 269 270 270 271 270 270 270 270 270 271 272 273 274 275 276 277 277 278 279 279 278 278 278 278 279 281 283 285 287 289 291 293 294 294 293 292
292 294 296 300 301 302 303 304 304 305 305 306 306 306 305 305 304 304 305 305 305 304 303 303 303 301 298 295 294 293 290 287 285 286 286 285 282 278 275 273 273 272 273 272 271 271 270 270 270 270 269 268 269 269 269 269 268 267 268 269 270 272 273 274 275 276 277 277 276 277 278 279 279 279 280 283 285 287 290 293 294 295 295 295 294
293 295 298 301 303 303 304 304 305 306 306 307 307 306 305 305 305 306 306 306 305 304 304 304 304 301 298 298 298 294 291 289 287 285 282 277 271 267 267 269 273 276 278 277 275 273 272 272 272 272 271 270 268 268 268 267 266 265 265 266 268 269 271 272 273 274 275 275 276 278 278 279 279 280 281 284 286 288 290 293 294 295 295 294 292
295 298 301 304 304 304 305 306 307 308 308 309 308 308 307 306 307 307 307 307 306 305 304 304 304 302 302 303 302 297 294 292 289 287 284 282 279 275 274 275 278 281 283 284 282 278 275 273 273 274 274 274 271 268 266 265 264 263 264 265 266 267 268 270 271 272 273 275 275 276 277 277 278 279 280 284 287 289 290 292 293 294 296 295 291
298 301 303 305 306 306 307 308 309 310 311 310 309 309 308 308 309 309 309 308 306 304 304 303 302 303 305 306 306 304 301 298 295 293 293 291 290 290 290 289 288 288 289 288 286 283 279 276 275 274 274 274 273 271 267 265 263 262 262 263 264 265 266 268 269 270 272 273 273 273 274 275 277 279 280 283 287 289 290 291 293 294 296 296 293
302 304 306 307 308 308 308 309 311 312 311 311 311 311 311 311 312 311 309 308 305 304 304 303 302 304 307 307 307 307 304 299 297 297 295 294 293 292 292 291 289 288 288 288 287 284 281 278 277 276 274 275 275 273 271 268 265 263 263 262 263 264 265 266 268 269 270 271 271 271 272 274 277 280 280 282 285 288 289 291 293 294 296 296 295
306 308 309 310 310 309 310 311 312 313 313 313 313 314 314 314 313 311 309 307 305 304 304 302 303 305 306 306 307 304 297 291 291 290 289 288 289 288 287 285 284 284 286 287 286 284 281 279 278 277 276 276 276 276 274 271 267 264 262 262 262 263 265 265 266 268 269 269 269 269 271 274 278 280 282 282 285 287 288 289 291 293 294 295 295
310 310 310 311 311 311 312 313 313 314 315 315 316 316 316 315 313 311 309 307 305 304 303 303 304 306 306 306 305 301 293 289 288 288 288 288 289 288 287 285 284 283 284 284 284 283 281 279 278 278 278 278 279 278 276 273 268 265 262 261 262 263 263 264 266 267 268 267 267 268 270 274 277 279 281 284 285 286 287 288 290 293 294 294 294
311 312 312 312 313 313 314 314 314 315 316 317 317 318 317 316 314 311 309 307 306 305 304 305 306 307 307 307 306 303 298 295 294 293 293 293 293 292 290 289 287 285 283 282 283 283 280 277 277 279 280 281 281 281 278 274 270 266 263 262 262 262 262 263 265 266 266 265 266 268 270 273 277 278 280 283 286 286 287 288 290 292 295 296 294
313 313 313 314 314 314 315 315 315 316 317 317 318 318 317 316 314 312 310 309 308 308 307 307 308 309 308 308 307 305 302 300 299 297 296 295 294 293 292 291 290 288 284 282 283 282 280 277 275 277 281 284 285 284 281 276 271 268 265 263 262 262 261 262 263 264 264 263 264 267 270 272 275 277 279 283 286 286 285 288 290 293 295 296 295
315 315 315 315 315 315 316 316 317 317 317 318 318 317 317 316 315 314 313 312 312 311 311 310 310 310 309 309 308 306 304 302 300 298 297 295 294 293 292 291 290 288 285 284 284 284 282 278 274 275 279 284 287 288 284 277 271 268 266 264 263 262 261 262 263 263 262 263 264 267 270 272 275 277 280 283 286 286 285 287 290 293 295 297 297
317 317 317 317 316 316 317 318 318 318 318 318 317 317 317 318 317 317 317 316 315 314 312 311 311 310 309 309 308 306 305 303 300 298 297 296 295 293 292 291 290 288 285 284 284 284 283 280 276 275 278 284 289 290 286 278 271 268 266 265 264 263 262 262 262 261 261 263 264 267 270 273 274 277 281 283 285 285 286 287 290 292 295 299 300
319 319 318 317 317 318 319 319 319 319 318 318 317 317 318 319 319 319 318 317 316 315 314 313 312 311 310 309 308 306 305 303 301 299 298 297 296 295 294 292 291 288 285 283 283 283 283 282 279 277 279 285 290 291 286 278 271 268 266 265 264 264 262 261 261 261 261 263 264 266 270 273 274 277 281 283 284 284 284 286 288 290 294 299 303
320 320 319 319 319 319 320 320 320 319 319 318 318 317 318 319 319 319 319 318 317 317 316 315 314 312 311 309 308 307 306 304 302 301 300 299 298 297 295 293 292 289 285 283 282 281 282 283 282 280 281 287 291 290 285 277 271 268 266 265 263 262 261 259 259 260 261 262 263 266 268 271 275 279 281 282 283 285 285 285 287 290 294 298 302
322 321 321 321 321 321 321 321 320 319 319 318 317 317 318 319 319 320 320 319 319 319 317 316 314 313 311 310 309 309 308 305 304 303 302 301 300 298 296 295 293 289 285 283 281 280 281 284 282 280 281 287 291 289 283 277 272 270 267 265 262 261 259 257 256 257 258 260 261 264 267 269 273 277 280 282 283 283 284 285 287 290 295 299 301
323 323 323 322 323 323 322 321 320 319 318 317 317 318 319 320 320 320 320 320 319 319 318 317 315 313 312 311 310 310 308 306 305 304 303 302 301 300 298 297 293 288 284 282 280 281 284 286 284 281 281 285 289 290 286 281 275 271 268 264 261 259 256 254 253 254 255 257 260 262 265 268 271 274 278 281 281 280 280 283 286 290 295 299 302
325 324 324 324 324 324 323 321 320 319 318 318 319 320 320 320 320 319 319 320 320 320 319 317 316 314 313 312 311 310 308 307 306 305 304 303 301 300 299 296 292 287 284 282 281 283 287 289 287 282 279 280 283 287 288 285 278 272 268 264 260 256 252 249 249 251 254 258 261 261 262 265 270 274 277 277 276 276 278 281 284 289 294 298 303